Temp
70 63 58 63 66 68 66 62 61 64 68 64 60 54 55 62 63 62 64 64 64 64 67 68 68 68 67 66 65 65 63 63 66 66 66 66 66 66 66 67 65 64 63 62
64 58 69 71 69 67 67 63 60 63 66 65 59 55 58 61 63 65 66 64 63 62 63 64 64 64 64 64 64 65 64 63 63 65 65 66 66 66 66 66 64 64 62 62
62 66 73 70 67 64 64 62 57 57 61 64 60 55 57 63 67 68 68 68 65 63 62 62 64 63 64 62 62 64 64 63 62 63 64 64 65 64 62 62 62 62 62 61
66 72 69 68 65 67 58 69 65 59 55 50 62 45 54 59 60 61 62 63 64 64 64 65 65 64 63 63 64 64 63 63 63 62 61 59 59 58 60 60 61 62 61 60
62 64 64 63 66 69 63 68 63 61 57 57 55 50 55 60 56 57 60 61 62 63 63 63 63 64 65 64 62 63 63 62 62 60 60 59 58 59 60 59 58 58 59 59
68 73 69 68 71 71 70 66 64 61 57 43 53 52 51 54 56 59 62 63 63 64 64 65 66 66 64 64 62 62 62 62 62 60 59 58 56 57 56 57 56 56 57 57
62 64 69 70 65 69 66 58 45 42 41 41 58 53 51 63 64 64 62 62 63 64 63 63 64 64 63 62 62 62 63 61 61 60 59 58 58 57 56 56 56 55 55 55
51 48 61 68 66 60 60 58 46 36 39 45 59 47 55 69 68 69 66 64 63 62 63 64 65 63 63 62 62 62 62 61 61 60 59 58 58 58 57 56 56 55 54 54
52 52 66 67 70 67 58 53 64 51 54 46 54 55 61 65 64 66 63 62 61 62 62 64 64 63 62 61 60 61 61 61 60 59 59 57 57 56 55 55 55 54 54 56
61 50 62 65 68 68 63 67 50 51 35 37 49 51 47 55 58 62 60 60 61 62 63 64 63 62 63 61 59 60 61 60 60 59 58 58 57 57 56 55 54 53 53 53
65 56 53 61 56 56 57 55 56 54 49 40 39 47 61 57 60 59 60 61 61 62 63 63 64 64 64 62 61 60 61 60 59 59 58 57 56 56 56 54 53 53 53 53
64 57 45 51 62 66 62 57 56 36 34 45 43 42 64 62 62 62 62 63 63 64 64 64 64 63 63 62 61 60 59 60 59 60 58 56 56 56 54 53 53 53 52 53
62 51 42 46 54 60 57 58 59 53 49 39 36 41 64 64 62 64 62 63 64 64 65 64 64 63 62 61 61 60 60 60 60 60 58 56 55 55 53 53 53 53 52 52
59 55 49 40 46 54 49 55 58 54 42 44 44 52 57 60 60 62 63 64 65 64 65 65 63 63 62 62 61 60 60 60 60 59 58 55 54 54 53 53 52 52 52 51
59 47 53 55 58 57 55 53 56 53 53 45 51 53 59 62 62 63 65 65 65 64 64 64 63 62 62 61 61 62 60 59 59 58 57 54 55 55 54 52 52 52 51 51
58 45 51 38 57 58 55 57 57 57 57 56 57 57 70 67 67 65 65 65 64 64 65 65 65 64 63 62 61 62 60 59 58 57 56 57 56 55 53 52 51 50 50 50
51 46 44 39 53 53 43 54 57 58 60 59 51 60 69 64 65 64 65 66 65 65 66 66 65 64 63 62 62 60 60 60 58 57 57 57 56 54 52 52 51 48 47 48
50 49 45 38 46 31 51 63 63 60 62 64 64 66 69 67 68 69 69 67 66 67 67 66 66 65 64 64 63 61 62 60 58 58 58 57 56 55 51 51 49 46 47 47
56 50 37 34 36 46 52 57 57 56 57 66 64 67 70 71 69 67 71 71 68 68 68 67 67 66 64 64 63 62 61 60 59 59 58 58 56 54 53 47 38 46 47 47
56 54 42 37 33 31 50 61 66 65 46 66 68 66 67 69 57 62 70 71 69 69 69 68 67 67 64 63 63 60 60 60 59 59 60 59 57 55 53 51 49 48 49 49
41 41 37 36 35 44 59 64 67 43 48 66 68 68 67 64 67 70 71 70 71 70 68 69 67 65 64 64 62 59 59 58 61 61 60 58 57 55 53 51 50 48 48 48
42 38 36 39 34 33 63 62 52 58 63 64 66 67 66 68 69 71 71 70 70 69 69 68 65 64 63 63 61 59 58 59 60 59 57 56 55 55 55 50 49 49 46 44
41 47 41 45 44 58 63 62 63 64 63 65 65 66 67 68 69 71 71 70 71 70 69 69 65 63 62 62 61 58 59 60 58 56 55 54 54 54 53 48 46 43 43 39
46 57 49 49 54 58 62 65 63 65 65 67 68 67 67 67 70 70 71 70 70 71 69 68 65 62 60 61 62 60 61 59 56 54 53 53 50 50 49 48 45 42 39 37
48 50 47 50 57 60 62 64 64 65 67 68 69 68 67 68 68 70 69 70 71 71 70 67 64 62 61 61 61 61 61 57 55 55 54 52 50 48 46 46 43 42 42 40
52 49 42 42 56 57 59 64 65 63 64 66 67 67 68 69 68 69 69 70 71 70 69 66 64 63 62 61 60 61 60 57 54 53 51 47 42 42 42 40 39 42 39 38
MSLP
1007.22 1006.90 1006.13 1006.16 1006.29 1006.00 1006.43 1007.13 1007.22 1008.38 1009.81 1011.03 1012.40 1014.44 1015.70 1016.22 1016.24 1016.68 1017.05 1017.67 1018.32 1019.07 1019.81 1020.29 1020.60 1021.01 1021.20 1021.10 1021.30 1021.37 1021.34 1021.23 1020.55 1020.40 1020.20 1020.07 1020.20 1020.31 1020.70 1020.89 1021.31 1021.51 1021.52 1021.44
1006.61 1005.88 1005.34 1005.48 1005.82 1005.51 1005.45 1005.93 1006.87 1008.64 1009.91 1010.41 1012.11 1014.03 1015.21 1015.65 1015.67 1015.89 1016.23 1017.29 1018.31 1019.39 1020.34 1020.85 1021.16 1021.43 1021.53 1021.41 1021.48 1021.56 1021.65 1021.76 1021.42 1021.40 1021.16 1020.81 1020.71 1020.88 1021.07 1021.20 1021.58 1021.71 1021.94 1021.86
1004.98 1004.66 1004.55 1004.76 1004.85 1005.01 1005.40 1005.50 1007.56 1008.87 1010.02 1010.32 1011.69 1013.37 1014.48 1014.87 1014.85 1015.35 1016.17 1016.84 1017.92 1019.19 1020.08 1020.81 1021.13 1021.28 1021.63 1021.88 1021.86 1022.02 1021.87 1022.20 1022.19 1021.92 1021.75 1021.33 1021.17 1021.44 1021.73 1021.83 1022.08 1022.18 1022.42 1022.45
1004.38 1004.05 1003.88 1003.99 1004.26 1004.64 1005.04 1005.66 1006.66 1008.49 1009.47 1009.86 1011.13 1011.81 1013.08 1014.02 1014.57 1015.58 1016.28 1017.00 1017.92 1018.79 1019.58 1020.29 1020.89 1021.20 1021.34 1022.18 1022.02 1022.21 1022.18 1022.38 1022.56 1022.56 1022.32 1022.32 1022.33 1022.34 1022.51 1022.67 1022.63 1022.57 1022.70 1022.86
1004.16 1004.19 1004.23 1004.14 1004.07 1004.75 1004.94 1005.92 1007.69 1008.53 1009.29 1009.63 1010.48 1010.85 1011.18 1012.64 1013.76 1015.03 1016.02 1017.12 1018.08 1018.87 1019.54 1020.25 1020.60 1021.15 1021.31 1021.86 1022.28 1022.18 1022.46 1022.57 1022.99 1023.20 1023.01 1023.00 1022.97 1023.05 1022.97 1023.13 1023.15 1023.15 1023.15 1023.16
1003.80 1004.26 1004.55 1004.24 1004.41 1004.70 1005.57 1006.06 1007.29 1008.61 1009.39 1009.79 1010.05 1010.20 1010.07 1011.00 1012.09 1013.70 1015.12 1016.45 1017.65 1018.35 1019.21 1019.91 1020.53 1020.96 1021.38 1021.97 1022.23 1022.33 1022.55 1022.81 1023.42 1023.50 1023.48 1023.49 1023.60 1023.62 1023.58 1023.47 1023.70 1023.67 1023.69 1023.65
1004.29 1004.40 1004.48 1004.56 1004.56 1004.93 1005.77 1006.73 1007.84 1008.87 1009.08 1009.11 1009.31 1009.16 1009.16 1009.18 1010.42 1011.95 1013.77 1015.56 1017.08 1018.11 1019.09 1019.81 1020.32 1020.70 1021.32 1021.93 1022.16 1022.35 1022.60 1023.02 1023.64 1023.90 1023.87 1024.04 1024.08 1024.05 1024.10 1024.05 1024.18 1024.30 1024.22 1024.30
1004.29 1004.62 1004.73 1004.84 1004.28 1004.88 1005.81 1006.57 1007.21 1008.01 1008.46 1008.70 1008.68 1008.45 1008.38 1008.16 1009.79 1011.30 1013.10 1015.07 1016.78 1018.04 1018.87 1019.42 1019.79 1020.62 1021.35 1022.02 1022.45 1022.52 1022.91 1023.29 1024.08 1024.22 1024.22 1024.61 1024.72 1024.55 1024.52 1024.56 1024.51 1024.65 1024.73 1024.60
1003.97 1004.31 1004.95 1005.21 1004.94 1005.48 1006.08 1006.30 1006.84 1007.92 1008.04 1008.47 1007.83 1008.70 1009.39 1009.52 1010.36 1011.35 1013.06 1014.89 1016.46 1017.69 1018.58 1019.03 1019.81 1020.63 1021.34 1021.98 1022.56 1022.71 1023.09 1023.77 1024.00 1024.33 1024.48 1024.69 1024.80 1024.81 1024.69 1024.65 1024.76 1024.94 1024.88 1024.78
1003.62 1004.24 1005.20 1005.38 1005.65 1005.70 1005.95 1006.64 1007.57 1008.64 1009.40 1008.95 1008.13 1008.12 1008.60 1009.28 1010.33 1011.42 1012.91 1014.57 1016.12 1017.29 1018.15 1018.77 1019.69 1020.51 1021.12 1021.90 1022.74 1023.16 1023.28 1023.75 1024.20 1024.40 1024.51 1024.59 1024.71 1024.71 1024.78 1024.85 1025.06 1025.35 1025.29 1025.24
1003.65 1004.21 1005.85 1006.00 1005.98 1005.74 1006.61 1006.55 1007.50 1009.07 1009.80 1009.70 1009.28 1008.36 1008.11 1008.69 1009.88 1011.14 1012.81 1014.32 1015.72 1016.78 1017.60 1018.34 1019.23 1020.10 1020.86 1021.87 1022.62 1023.10 1023.36 1023.72 1024.08 1024.32 1024.54 1024.69 1024.80 1024.80 1025.03 1025.35 1025.51 1025.56 1025.51 1025.44
1004.13 1004.90 1005.88 1006.47 1006.99 1006.66 1006.88 1007.21 1007.82 1009.85 1010.42 1010.29 1010.35 1009.71 1008.47 1008.84 1009.89 1011.08 1012.54 1013.97 1015.26 1016.22 1017.04 1017.93 1018.81 1019.81 1020.70 1021.60 1022.41 1022.98 1023.32 1023.67 1024.07 1024.21 1024.40 1024.61 1024.87 1025.15 1025.25 1025.44 1025.58 1025.60 1025.79 1025.56
1004.73 1005.56 1006.13 1006.97 1007.41 1007.06 1006.76 1007.38 1007.87 1009.38 1010.46 1010.46 1010.33 1009.56 1008.91 1009.12 1010.19 1011.15 1012.26 1013.48 1014.60 1015.63 1016.58 1017.55 1018.48 1019.52 1020.48 1021.32 1022.03 1022.68 1023.18 1023.53 1023.84 1024.09 1024.34 1024.74 1025.02 1025.21 1025.48 1025.68 1025.81 1025.78 1025.82 1025.60
1005.37 1005.91 1005.87 1005.99 1006.07 1006.77 1006.89 1006.89 1007.59 1008.24 1009.29 1009.44 1009.28 1008.51 1008.63 1008.83 1009.76 1010.78 1011.78 1012.92 1013.93 1015.02 1016.01 1016.95 1017.99 1019.07 1020.02 1020.88 1021.64 1022.26 1022.86 1023.41 1023.83 1024.20 1024.44 1024.88 1025.24 1025.47 1025.66 1025.85 1025.94 1025.88 1025.81 1025.70
1006.21 1006.38 1006.54 1006.67 1006.16 1006.06 1006.16 1006.57 1006.73 1007.04 1007.46 1008.25 1007.76 1007.41 1007.22 1007.82 1008.78 1009.88 1011.07 1012.29 1013.28 1014.35 1015.29 1016.31 1017.46 1018.51 1019.49 1020.42 1021.27 1021.96 1022.68 1023.32 1023.79 1024.18 1024.48 1024.94 1025.28 1025.44 1025.69 1025.86 1025.92 1025.85 1025.82 1025.64
1006.65 1007.08 1007.28 1006.86 1006.37 1005.79 1005.28 1005.46 1005.95 1006.15 1006.51 1006.85 1006.74 1005.94 1005.16 1006.76 1008.16 1009.33 1010.29 1011.39 1012.39 1013.53 1014.50 1015.65 1016.81 1017.88 1018.93 1019.90 1020.79 1021.56 1022.29 1023.06 1023.68 1024.00 1024.41 1024.80 1025.13 1025.30 1025.57 1025.75 1025.79 1025.84 1025.82 1025.67
1007.11 1007.56 1007.85 1007.66 1007.20 1006.53 1005.63 1004.83 1004.86 1005.16 1005.48 1005.54 1005.52 1005.28 1005.00 1006.16 1007.02 1008.06 1009.24 1010.38 1011.46 1012.64 1013.69 1014.86 1016.05 1017.16 1018.31 1019.34 1020.25 1021.13 1021.89 1022.65 1023.31 1023.70 1024.14 1024.52 1024.82 1025.12 1025.44 1025.64 1025.82 1025.97 1025.87 1025.66
1007.12 1007.67 1008.49 1008.45 1008.04 1006.43 1005.52 1004.96 1004.44 1004.35 1004.43 1004.62 1004.74 1004.75 1004.55 1005.40 1006.56 1007.52 1008.58 1009.65 1010.77 1011.84 1013.01 1014.21 1015.41 1016.59 1017.75 1018.87 1019.88 1020.72 1021.41 1022.17 1022.80 1023.18 1023.59 1024.13 1024.50 1024.81 1025.15 1025.41 1025.68 1025.82 1025.67 1025.51
1007.17 1007.78 1008.54 1008.81 1008.20 1006.61 1005.40 1004.80 1004.40 1004.10 1003.52 1003.51 1003.79 1004.27 1004.19 1004.70 1005.73 1006.75 1007.69 1008.84 1010.04 1011.12 1012.35 1013.60 1014.86 1016.08 1017.31 1018.39 1019.40 1020.25 1020.96 1021.64 1022.21 1022.63 1023.11 1023.56 1024.14 1024.50 1024.77 1025.18 1025.76 1025.49 1025.39 1025.32
1007.11 1007.62 1008.52 1008.92 1008.28 1006.41 1005.45 1004.43 1004.29 1003.92 1003.16 1003.45 1003.45 1003.70 1003.91 1004.30 1004.75 1005.49 1006.78 1008.15 1009.46 1010.65 1011.80 1013.06 1014.36 1015.63 1016.89 1017.98 1018.98 1019.86 1020.50 1021.09 1021.57 1022.10 1022.60 1023.26 1023.84 1024.24 1024.51 1024.84 1025.12 1025.23 1025.22 1025.11
1007.14 1007.48 1007.80 1008.55 1007.92 1006.23 1004.65 1004.15 1003.84 1003.88 1003.99 1003.57 1003.25 1003.26 1003.63 1003.78 1004.14 1005.15 1006.36 1007.58 1008.86 1010.13 1011.36 1012.60 1013.89 1015.12 1016.37 1017.57 1018.57 1019.46 1020.11 1020.60 1021.13 1021.71 1022.48 1023.15 1023.62 1024.03 1024.40 1024.71 1024.97 1025.06 1025.08 1025.07
1006.54 1007.08 1007.31 1007.58 1007.29 1006.00 1004.59 1004.12 1003.66 1003.87 1003.82 1003.88 1003.35 1003.44 1003.19 1003.64 1004.27 1005.11 1005.87 1006.75 1008.06 1009.41 1010.81 1012.10 1013.45 1014.75 1015.99 1017.17 1018.19 1019.04 1019.73 1020.31 1020.93 1021.76 1022.53 1023.04 1023.55 1023.95 1024.25 1024.64 1024.90 1024.98 1025.12 1025.41
1005.88 1005.67 1006.04 1006.22 1005.41 1004.95 1004.25 1003.77 1004.09 1004.22 1004.16 1004.13 1004.01 1004.06 1003.66 1003.59 1004.12 1004.92 1005.51 1006.52 1007.52 1008.76 1010.19 1011.58 1012.96 1014.35 1015.60 1016.74 1017.76 1018.61 1019.26 1019.98 1020.95 1021.85 1022.43 1022.91 1023.43 1023.87 1024.23 1024.62 1024.80 1025.24 1025.54 1025.75
1006.84 1005.37 1005.29 1005.48 1004.86 1004.52 1004.13 1004.16 1004.41 1004.51 1004.41 1004.61 1004.64 1004.71 1004.68 1004.48 1004.42 1004.92 1005.64 1006.44 1007.28 1008.41 1009.63 1011.04 1012.50 1013.86 1015.20 1016.32 1017.34 1018.18 1018.81 1019.73 1020.85 1021.70 1022.29 1022.79 1023.39 1023.85 1024.30 1024.50 1024.84 1025.21 1025.47 1025.65
1006.17 1005.83 1005.94 1004.75 1004.29 1004.10 1003.97 1003.93 1004.23 1004.51 1004.68 1004.66 1004.84 1005.11 1005.24 1005.32 1005.26 1005.28 1005.80 1006.24 1006.93 1007.99 1009.23 1010.57 1011.98 1013.46 1014.82 1016.03 1017.04 1017.84 1018.48 1019.50 1020.59 1021.40 1022.01 1022.57 1023.16 1023.84 1024.23 1024.48 1024.73 1024.96 1025.19 1025.46
1006.21 1005.82 1006.26 1005.33 1004.65 1003.77 1003.66 1003.61 1003.96 1004.56 1004.77 1004.93 1005.08 1005.24 1005.47 1005.65 1005.80 1005.88 1006.00 1006.53 1007.00 1007.73 1008.86 1010.25 1011.59 1013.12 1014.48 1015.73 1016.76 1017.49 1018.27 1019.28 1020.24 1021.02 1021.73 1022.52 1023.37 1024.02 1024.33 1024.66 1024.63 1024.55 1024.82 1024.96
Wind_Speed
14 12 14 17 19 20 21 19 18 20 17 17 19 16 16 16 14 12 11 8 9 10 10 9 9 8 8 8 9 10 11 12 8 7 6 6 6 6 7 7 10 10 10 10
12 16 17 17 20 22 18 18 10 15 19 14 17 15 16 15 13 13 14 13 12 11 9 8 9 8 9 8 8 9 10 11 9 6 6 4 4 6 6 6 8 9 10 10
14 16 17 16 19 19 12 16 18 17 9 7 15 14 16 17 16 12 11 13 14 13 11 10 8 9 8 7 6 7 9 10 9 7 7 5 5 7 6 6 7 9 11 11
17 7 11 17 18 12 16 7 16 20 17 10 18 10 20 19 16 13 11 8 10 13 11 10 9 9 9 7 7 8 9 9 10 10 7 9 7 6 6 5 5 5 7 10
16 9 11 14 12 13 13 19 13 13 13 14 21 10 17 20 19 18 16 15 13 12 12 10 9 8 9 8 5 6 9 10 9 8 8 7 7 6 5 5 7 7 7 10
12 7 12 16 13 15 9 10 13 10 9 6 11 13 9 19 19 19 18 17 15 14 11 10 9 9 9 8 6 5 9 10 8 7 8 7 7 7 6 6 5 5 5 6
8 13 9 6 17 13 15 14 6 7 8 7 18 12 9 11 20 19 20 18 15 13 11 11 10 9 9 8 4 6 8 10 8 7 8 8 6 7 7 7 6 6 6 5
11 13 12 10 15 11 15 15 6 10 11 12 16 7 4 4 19 18 20 17 15 13 11 10 10 9 8 7 6 6 8 9 7 6 7 6 7 5 5 6 5 5 5 5
14 12 16 14 13 14 16 16 16 4 5 4 7 6 3 8 12 15 20 18 16 14 12 11 10 9 8 8 6 5 7 7 6 5 4 5 5 5 5 6 6 5 6 7
12 9 16 14 12 15 12 15 10 1 2 5 7 16 7 15 15 17 19 18 16 14 13 12 11 9 8 9 7 4 5 6 5 5 4 5 5 6 6 6 7 7 6 6
9 7 12 11 13 15 9 11 7 5 5 3 5 4 1 18 16 19 18 18 16 15 14 12 12 10 10 9 8 5 4 5 5 4 5 5 5 6 6 5 5 5 6 6
11 6 11 19 13 15 14 14 12 5 6 4 1 4 6 13 15 16 18 18 16 15 14 13 12 12 10 9 9 6 5 5 4 4 4 5 5 5 5 5 6 6 6 6
10 3 9 15 14 11 15 17 14 11 4 4 5 3 5 14 15 16 17 17 16 16 16 15 13 12 11 10 9 9 7 5 4 4 3 4 4 5 5 5 5 5 5 6
2 10 12 10 15 7 17 17 20 15 8 7 11 6 9 16 17 18 18 17 17 16 17 15 13 13 12 11 9 9 7 6 4 3 2 5 3 3 4 4 4 5 5 5
5 11 12 18 18 22 20 21 22 22 19 15 11 18 16 16 19 19 17 18 19 18 18 16 15 13 12 11 10 9 9 7 5 4 2 4 3 1 4 3 3 4 5 5
8 6 14 6 18 14 13 22 23 23 22 21 17 16 13 16 17 19 19 20 20 19 19 17 17 16 14 13 11 10 9 8 7 5 4 3 2 0 4 3 3 5 5 5
12 7 8 12 13 13 16 15 20 21 21 20 19 15 11 16 19 21 20 21 20 20 19 18 17 16 14 13 12 10 9 8 7 5 5 4 3 0 3 3 5 5 5 5
11 13 6 3 10 19 6 15 15 18 19 21 19 18 12 16 15 17 18 19 19 20 19 18 15 14 14 13 12 11 10 9 7 7 6 5 4 2 3 1 2 3 4 4
13 11 3 5 9 7 17 14 16 18 17 18 19 18 15 15 18 16 19 19 19 18 17 15 14 13 13 13 12 11 10 10 9 7 6 5 3 2 1 2 3 4 4 4
15 12 8 5 8 12 13 11 18 11 16 14 15 17 18 11 14 13 18 19 18 16 16 16 16 14 14 13 13 11 11 10 9 7 6 5 3 1 1 2 3 3 4 5
9 7 12 6 6 8 9 12 14 17 2 8 15 14 14 14 10 7 18 16 17 15 17 17 16 14 14 13 13 11 10 9 7 7 5 5 3 1 1 1 2 3 4 5
13 9 7 8 10 14 10 7 9 1 4 4 5 7 15 11 8 9 19 20 20 20 19 18 15 14 14 13 13 12 11 7 6 7 6 5 4 1 1 2 3 3 4 5
17 12 10 11 8 8 6 5 3 1 3 2 4 8 9 4 13 12 14 18 19 20 18 17 16 15 14 14 13 13 10 9 8 7 6 5 4 3 0 2 2 3 4 3
9 12 12 10 14 14 7 5 7 3 5 4 5 4 2 4 4 10 8 15 16 18 18 18 17 16 15 14 14 11 11 11 10 8 6 5 5 3 1 1 2 1 1 2
8 8 6 10 12 18 19 10 7 9 7 6 5 5 2 1 5 8 9 8 15 16 17 17 16 15 15 15 13 12 10 12 10 9 7 5 4 3 1 1 0 1 1 1
7 8 7 7 12 6 11 11 7 8 8 7 7 6 6 6 6 7 8 8 9 14 16 16 16 15 15 15 14 13 12 12 10 8 5 5 4 2 0 1 2 5 9 7
Wind_Direction
199 207 207 200 212 213 203 209 185 181 169 191 154 150 167 180 167 168 161 129 112 102 93 96 100 98 90 81 66 48 45 17 23 23 23 27 57 41 54 61 48 48 34 25
181 214 209 205 206 229 231 207 169 98 168 198 131 153 170 184 178 184 163 149 142 128 122 93 81 66 51 57 58 60 62 45 16 42 10 15 50 47 46 46 70 49 40 31
198 206 230 200 212 221 211 230 144 161 170 230 144 163 177 186 182 161 159 158 151 149 142 139 127 118 101 75 63 65 61 68 32 25 30 13 26 57 33 41 24 46 45 22
229 179 234 200 215 202 228 217 161 144 170 182 188 180 186 185 180 173 166 151 139 144 141 132 128 118 101 89 66 74 62 50 61 22 42 28 55 51 38 33 36 49 49 38
215 163 202 205 205 197 243 150 176 154 198 198 192 242 179 175 186 187 173 171 161 155 150 146 126 111 97 96 89 78 77 68 59 50 38 45 40 35 47 33 33 35 33 45
224 182 215 217 205 197 111 117 158 167 204 236 212 224 225 178 189 179 173 167 164 156 151 140 136 123 101 90 86 80 84 73 67 60 48 50 41 59 32 42 32 23 30 32
198 194 172 245 203 148 167 159 167 200 215 213 222 221 211 168 177 177 168 161 164 152 155 152 159 130 105 99 83 100 79 80 71 62 62 36 43 42 56 27 35 27 20 25
179 195 169 209 202 169 193 186 184 196 213 224 218 236 206 226 159 173 153 154 157 163 159 171 152 125 120 105 99 87 84 82 84 73 67 63 35 37 43 44 31 28 22 15
195 197 181 186 214 186 198 202 207 318 257 283 196 105 120 128 144 162 151 160 165 171 168 166 135 129 138 119 107 75 100 93 79 71 83 71 61 51 42 44 37 24 20 8
192 169 176 185 200 207 222 206 192 205 190 230 221 189 191 178 173 162 159 165 169 176 170 167 150 152 140 121 116 132 109 104 100 92 48 56 46 43 42 40 31 25 9 7
239 157 167 186 197 192 197 212 186 177 220 249 269 247 317 175 174 165 164 168 172 179 172 162 159 157 138 143 144 151 121 119 105 93 85 65 48 39 44 42 29 27 3 356
223 167 180 199 212 240 201 220 169 132 254 170 335 302 5 157 169 160 167 171 173 177 169 163 159 156 149 152 151 155 125 130 123 108 77 61 53 40 37 33 18 15 6 350
188 242 164 204 209 230 224 208 215 156 156 220 157 243 182 149 168 169 171 172 172 173 170 166 163 162 159 165 165 155 169 133 113 89 94 80 51 42 29 26 11 7 0 342
184 208 212 205 195 195 218 218 215 191 199 198 220 191 176 165 175 175 178 176 172 174 173 170 166 169 168 166 167 158 149 143 141 133 125 97 61 35 41 26 5 4 354 350
211 221 234 213 219 193 203 209 214 216 215 209 232 220 176 180 179 179 179 172 175 179 176 171 172 172 169 166 163 168 152 156 160 155 159 117 104 72 60 27 357 4 359 354
194 234 237 275 239 254 244 201 222 212 222 221 227 243 208 172 171 176 183 177 181 182 177 175 176 172 172 170 167 173 158 160 166 172 154 127 142 83 81 358 12 17 358 346
214 192 221 238 237 246 248 242 206 225 217 227 220 241 147 164 178 180 182 181 184 181 179 179 179 174 172 170 171 166 164 159 172 165 165 165 170 202 87 356 32 4 335 326
202 198 212 204 232 232 253 238 244 226 224 220 231 226 214 168 186 181 184 182 187 180 184 180 176 170 168 166 170 162 169 164 180 180 173 173 179 209 135 75 26 333 301 327
219 186 182 169 221 269 215 222 227 234 239 225 221 229 239 184 176 192 186 186 187 183 180 175 170 167 166 168 167 167 176 173 178 191 176 178 162 208 309 132 214 269 307 308
202 210 180 168 217 229 224 243 224 243 242 238 223 220 229 220 192 191 180 181 179 180 173 171 169 166 166 170 164 175 180 181 189 183 174 157 169 205 295 8 338 301 311 311
213 220 207 175 218 253 239 240 231 209 278 247 245 221 220 214 198 156 168 175 175 175 169 167 169 172 167 167 164 181 182 188 184 152 153 163 164 186 263 340 302 318 312 330
193 194 203 205 204 234 236 217 189 247 99 9 338 286 211 203 166 204 177 173 174 172 170 169 169 168 163 166 170 180 189 176 155 141 165 170 178 205 343 1 305 327 351 2
196 200 196 195 196 177 253 130 228 100 126 355 25 4 343 208 178 201 177 176 177 173 171 169 168 164 164 167 175 185 182 164 146 159 175 175 171 181 125 304 4 23 20 329
262 240 210 201 202 227 227 216 134 218 145 142 120 67 1 302 233 189 186 180 178 176 174 168 167 168 168 170 178 187 175 149 156 175 183 168 166 190 99 235 81 268 257 296
157 235 281 256 223 204 221 206 200 188 243 176 177 153 121 268 248 210 184 200 177 178 173 169 170 170 170 171 180 182 160 150 168 183 181 174 142 169 204 44 217 278 308 261
240 223 209 252 252 266 209 205 169 189 210 221 220 219 212 220 216 245 203 200 197 182 168 168 167 169 170 174 180 181 153 160 174 182 167 141 120 128 242 231 271 231 228 229